Ketchikan, AK

10:25 PM AKDT on September 22, 2018 (GMT -0800)
Ketchikan International

Weather History for PAKT - June, 2018

Change the Weather History Date:

Monday, June 4, 2018

  Actual Average Record
Temperature  
Mean Temperature 48 °F -  
Max Temperature 55 °F 59 °F 77 °F (1958)
Min Temperature 42 °F 44 °F 35 °F (1973)
Degree Days  
Heating Degree Days 18    
Moisture  
Dew Point 44 °F    
Average Humidity 84    
Maximum Humidity 92    
Minimum Humidity 71    
Precipitation  
Precipitation 0.21 in - - ()
Sea Level Pressure  
Sea Level Pressure 29.92 in    
Wind  
Wind Speed 6 mph (SE)    
Max Wind Speed 15 mph    
Max Gust Speed -    
Visibility 9 miles    
Events Rain    
Averages and records for this station are not official NWS values.
T = Trace of Precipitation, MM = Missing Value Source: NWS Daily Summary

Daily Weather History Graph

Daily Weather History Graph

Search for Another Location

Airport or City:

Astronomy

Jun. 04, 2018 Rise Set
Actual Time 4:10 AM AKDT 9:21 PM AKDT
Civil Twilight 3:13 AM AKDT 10:17 PM AKDT
Nautical Twilight 1:11 AM AKDT 12:27 AM AKDT
Astronomical Twilight Sun does not set Sun does not set
Moon 12:57 AM AKDT (6/4) 9:55 AM AKDT (6/4)
Length of Visible Light 19h 04m
Length of Day
17h 10m
Waning Gibbous, 68% of the Moon is Illuminated
Jun 4
Waning Gibbous
Jun 6
Last Quarter
Jun 13
New
Jun 20
First Quarter
Jun 27
Full

Hourly Weather History & Observations

Time (AKDT) Temp. Windchill Dew Point Humidity Pressure Visibility Wind Dir Wind Speed Gust Speed Precip Events Conditions
12:53 AM 45.0 °F 43.5 °F 42.1 °F 90% 29.95 in 10.0 mi South 3.5 mph - N/A   Clear
1:53 AM 44.1 °F - 41.0 °F 89% 29.95 in 10.0 mi Calm Calm - N/A   Partly Cloudy
2:53 AM 42.1 °F 40.2 °F 39.9 °F 92% 29.94 in 10.0 mi ESE 3.5 mph - N/A   Partly Cloudy
3:53 AM 45.0 °F 43.5 °F 41.0 °F 86% 29.94 in 10.0 mi SE 3.5 mph - N/A   Mostly Cloudy
4:53 AM 45.0 °F - 42.1 °F 90% 29.94 in 10.0 mi Calm Calm - N/A   Mostly Cloudy
5:53 AM 46.0 °F - 43.0 °F 89% 29.92 in 10.0 mi Calm Calm - N/A   Overcast
6:01 AM 46.0 °F - 43.0 °F 89% 29.92 in 10.0 mi Calm Calm - N/A   Overcast
6:53 AM 48.0 °F - 43.0 °F 83% 29.92 in 10.0 mi Calm Calm - N/A   Overcast
7:53 AM 50.0 °F - 42.8 °F 76% 29.91 in 10.0 mi East 5.8 mph - N/A   Mostly Cloudy
8:53 AM 48.2 °F - 42.8 °F 82% 29.92 in 8.0 mi SE 8.1 mph - N/A Rain Light Rain
9:53 AM 50.0 °F - 42.8 °F 76% 29.92 in 10.0 mi SE 8.1 mph - N/A   Overcast
10:53 AM 51.8 °F - 44.6 °F 76% 29.91 in 10.0 mi ESE 10.4 mph - N/A   Overcast
11:53 AM 51.8 °F - 42.8 °F 71% 29.91 in 10.0 mi SSE 9.2 mph - N/A   Overcast
12:53 PM 50.0 °F - 44.1 °F 80% 29.91 in 10.0 mi SE 9.2 mph - 0.02 in Rain Light Rain
1:53 PM 51.8 °F - 46.4 °F 82% 29.92 in 10.0 mi ESE 11.5 mph - N/A Rain Light Rain
2:53 PM 53.6 °F - 44.6 °F 72% 29.91 in 10.0 mi SE 13.8 mph - N/A   Mostly Cloudy
3:53 PM 51.8 °F - 44.6 °F 76% 29.92 in 10.0 mi ESE 11.5 mph - N/A   Mostly Cloudy
4:53 PM 50.0 °F - 44.6 °F 82% 29.92 in 7.0 mi ESE 11.5 mph - N/A Rain Light Rain
5:53 PM 50.0 °F - 46.4 °F 87% 29.91 in 5.0 mi ESE 11.5 mph - N/A Rain Light Rain
6:53 PM 50.0 °F - 46.4 °F 87% 29.92 in 9.0 mi SE 8.1 mph - N/A Rain Light Rain
7:53 PM 48.2 °F - 44.6 °F 87% 29.91 in 10.0 mi SE 10.4 mph - N/A   Overcast
8:53 PM 48.2 °F - 44.6 °F 87% 29.91 in 10.0 mi SSE 11.5 mph - N/A   Overcast
9:25 PM 48.9 °F - 44.1 °F 83% 29.91 in 5.0 mi SSE 9.2 mph - 0.01 in Rain Light Rain
9:53 PM 48.0 °F - 45.0 °F 89% 29.91 in 5.0 mi SSE 8.1 mph - 0.06 in Rain Light Rain
10:12 PM 48.9 °F - 44.1 °F 83% 29.91 in 4.0 mi ESE 15.0 mph - 0.04 in Rain Rain
10:53 PM 48.0 °F - 45.0 °F 89% 29.92 in 4.0 mi SSE 8.1 mph - 0.12 in Rain Rain
11:13 PM 48.0 °F - 45.0 °F 89% 29.91 in 10.0 mi South 5.8 mph - 0.00 in Rain Light Rain
11:53 PM 46.9 °F - 44.1 °F 90% 29.91 in 9.0 mi South 5.8 mph - 0.01 in Rain Light Rain